DateTimeUTC,F1_A11,F1_S11,BsB_S11,BsG_S11,BsR_S11,BbsB_S11,BbsG_S11,BbsR_S11,BaB_A11,BaG_A11,BaR_A11,Tu_S11,T_S11,Uu_S11,U_S11,P_S11,T1_A11
2021-06-26T17:00:00Z,00000200,20000000,,,,,,,-000.07,0000.07,-000.03,19.7,26.0,04.7,03.2,0670.6,31.2
2021-06-26T17:01:00Z,00000200,20000000,,,,,,,0000.44,0000.22,0000.01,19.7,26.0,04.7,03.2,0670.6,31.2
2021-06-26T17:02:00Z,00000200,20000000,,,,,,,-000.14,-000.16,0000.32,19.7,26.0,04.7,03.2,0670.6,31.2
2021-06-26T17:03:00Z,00000200,60000000,,,,,,,0002.32,0002.07,0001.16,19.7,26.0,04.7,03.2,0670.6,31.2
2021-06-26T17:04:00Z,00000200,40000000,0000.17,0000.26,-000.04,-000.02,0000.11,-000.26,0004.00,0003.68,0003.02,19.7,25.9,04.6,03.2,0671.5,31.2
2021-06-26T17:05:00Z,00000200,00000000,0000.59,0000.26,0000.42,-000.04,-000.04,0000.12,0006.09,0005.48,0004.05,19.8,25.9,04.6,03.2,0671.6,31.2
2021-06-26T17:06:00Z,00000200,00000000,-000.14,0000.29,0000.16,0000.06,0000.16,0000.22,0004.47,0003.76,0002.99,19.8,25.8,04.8,03.3,0671.6,31.2
2021-06-26T17:07:00Z,00000200,00000000,0000.40,0000.26,0000.15,0000.82,0000.15,0000.10,0001.49,0001.54,0000.98,19.8,25.8,04.7,03.3,0671.6,31.2
2021-06-26T17:08:00Z,00000200,00000000,0000.82,0000.60,0000.05,0000.60,-000.05,0000.02,0010.33,0009.64,0006.97,19.8,25.8,04.6,03.2,0671.6,31.2
2021-06-26T17:09:00Z,00000200,00000000,0000.24,0000.73,0000.34,-000.04,0000.05,-000.07,0010.58,0009.08,0007.64,19.8,25.8,04.7,03.3,0671.7,31.2
2021-06-26T17:10:00Z,00000200,00000000,0000.50,0000.11,-000.12,0000.18,0000.10,-000.01,0005.30,0005.06,0003.61,19.8,25.9,04.8,03.3,0671.6,31.2
2021-06-26T17:11:00Z,00000200,00000000,-000.17,0000.49,0000.32,-000.11,0000.36,0000.25,0003.28,0002.64,0002.29,19.8,25.9,04.6,03.2,0671.6,31.2
2021-06-26T17:12:00Z,00000200,00000000,0000.09,0000.13,0000.30,0000.24,0000.27,-000.05,0001.38,0001.07,0000.71,19.8,25.8,04.7,03.3,0671.7,31.2
2021-06-26T17:13:00Z,00000200,00000000,0000.51,0000.08,0000.00,0000.34,0000.13,-000.21,0001.09,0001.22,0000.77,19.8,25.8,04.8,03.3,0671.6,31.2
2021-06-26T17:14:00Z,00000200,00000000,-000.35,0000.31,0000.04,-000.10,-000.04,-000.10,0002.08,0002.15,0001.63,19.8,25.8,04.7,03.3,0671.6,31.2
2021-06-26T17:15:00Z,00000200,00000000,0000.32,-000.10,-000.28,0000.21,-000.06,0000.09,0001.46,0000.80,0000.81,19.8,25.8,04.7,03.3,0671.6,31.2
2021-06-26T17:16:00Z,00000200,00000000,-000.05,0000.21,0000.38,-000.14,-000.05,-000.01,0000.16,0000.26,0000.03,19.8,25.8,04.7,03.2,0671.7,31.2
2021-06-26T17:17:00Z,00000200,00000000,0000.32,-000.30,-000.30,-000.05,-000.10,0000.03,-000.08,0000.50,0000.27,19.8,25.8,04.8,03.3,0671.7,31.2
2021-06-26T17:18:00Z,00000200,00000000,-000.21,0000.39,0000.16,-000.07,0000.06,0000.02,0000.43,-000.06,0000.20,19.8,25.8,04.9,03.4,0671.7,31.2
2021-06-26T17:19:00Z,00000200,00000000,0000.84,0000.34,0000.07,-000.29,-000.19,0000.08,0000.97,0000.81,0000.65,19.8,25.8,04.8,03.3,0671.6,31.2
2021-06-26T17:20:00Z,00000200,00000000,0000.57,0000.08,0000.13,0000.18,-000.15,0000.04,0000.91,0001.21,0000.68,19.8,25.8,04.8,03.3,0671.6,31.2
2021-06-26T17:21:00Z,00000200,00000000,-000.45,-000.13,0000.21,0000.12,-000.02,0000.10,0000.66,0000.54,0000.48,19.8,25.8,04.9,03.4,0671.6,31.2
2021-06-26T17:22:00Z,00000200,00000000,-000.12,0000.02,0000.11,0000.47,-000.11,-000.07,0000.25,0000.08,0000.04,19.8,25.8,04.9,03.4,0671.6,31.2
2021-06-26T17:23:00Z,00000200,00000000,-000.41,0000.32,-000.17,0000.32,0000.03,0000.14,0000.19,-000.02,0000.16,19.8,25.9,04.9,03.4,0671.6,31.2
2021-06-26T17:24:00Z,00000200,00000000,0000.35,-000.23,-000.03,0000.23,0000.21,-000.09,0000.46,0000.69,0000.32,19.8,25.8,04.9,03.4,0671.7,31.2
2021-06-26T17:25:00Z,00000200,00000000,-000.05,0000.03,0000.43,0000.13,-000.18,0000.07,0000.82,0000.35,0000.38,19.9,25.8,04.9,03.4,0671.7,31.2
2021-06-26T17:26:00Z,00000200,00000000,-000.02,0000.02,-000.26,-000.41,0000.18,-000.30,0000.07,0000.47,0000.05,19.9,25.9,05.0,03.5,0671.7,31.2
2021-06-26T17:27:00Z,00000200,00000000,0000.09,-000.19,0000.45,0000.36,-000.09,0000.20,0000.16,0000.14,0000.21,19.9,25.9,04.9,03.4,0671.7,31.2
2021-06-26T17:28:00Z,00000200,00000000,-000.30,-000.27,0000.05,-000.01,0000.02,0000.02,0000.04,-000.15,0000.16,19.9,25.8,05.1,03.5,0671.8,31.2
2021-06-26T17:29:00Z,00000200,00000000,0000.03,0000.39,-000.15,0000.13,-000.03,-000.08,-000.29,-000.14,-000.25,19.9,25.9,04.9,03.4,0671.7,31.2
2021-06-26T17:30:00Z,00000200,00000000,-000.32,-000.06,0000.09,0000.36,0000.05,0000.06,-000.03,0000.33,0000.16,19.9,25.9,04.9,03.4,0671.7,31.2
2021-06-26T17:31:00Z,00000200,00000000,0000.13,0000.34,0000.14,0000.34,-000.13,0000.16,0000.34,-000.23,-000.03,19.9,25.9,04.9,03.4,0671.8,31.2
2021-06-26T17:32:00Z,00000200,00000000,0000.35,-000.20,0000.40,0000.65,-000.12,-000.19,-000.03,0000.24,0000.34,19.9,25.9,04.9,03.4,0671.7,31.2
2021-06-26T17:33:00Z,00000200,00000000,-000.66,0000.17,0000.01,-000.22,-000.12,0000.09,0000.03,-000.09,-000.15,19.9,25.9,04.8,03.4,0671.7,31.2
2021-06-26T17:34:00Z,00000200,00000000,-000.13,-000.18,-000.07,0000.00,-000.15,-000.07,0000.12,-000.00,-000.37,19.9,25.9,05.0,03.5,0671.7,31.2
2021-06-26T17:35:00Z,00000200,00000000,-000.07,-000.08,-000.09,-000.41,0000.26,-000.16,0000.02,0000.21,0000.21,19.9,25.9,04.8,03.3,0671.7,31.2
2021-06-26T17:36:00Z,00000200,00000000,0000.43,-000.18,-000.12,0000.02,0000.05,0000.21,0000.02,-000.00,-000.05,19.9,25.9,04.8,03.3,0671.7,31.2
2021-06-26T17:37:00Z,00000200,00000000,0000.45,0000.06,-000.26,0000.67,0000.23,0000.03,0000.11,-000.13,0000.17,19.9,25.9,04.8,03.3,0671.7,31.2
2021-06-26T17:38:00Z,00000200,00000000,0000.31,0000.31,-000.04,0000.09,-000.14,-000.15,-000.16,0000.27,0000.32,19.9,25.9,04.8,03.3,0671.7,31.2
2021-06-26T17:39:00Z,00000200,00000000,0000.26,0000.10,-000.18,-000.16,-000.00,0000.01,0000.45,-000.16,-000.15,19.9,25.9,04.7,03.3,0671.7,31.2
2021-06-26T17:40:00Z,00000200,00000000,0000.38,0000.08,0000.28,0000.23,0000.02,0000.09,0000.02,-000.01,0000.13,20.0,25.9,04.8,03.3,0671.8,31.2
2021-06-26T17:41:00Z,00000200,00000000,-000.32,-000.27,0000.12,0000.76,0000.16,0000.01,0000.03,0000.34,0000.17,20.0,25.9,04.8,03.4,0671.8,31.2
2021-06-26T17:42:00Z,00000200,00000000,-000.24,-000.03,0000.04,-000.12,0000.19,0000.19,0000.07,-000.16,-000.16,20.0,25.9,04.8,03.3,0671.8,31.2
2021-06-26T17:43:00Z,00000200,00000000,-000.02,0000.18,-000.22,-000.12,0000.07,-000.14,-000.46,0000.15,0000.05,20.0,25.9,04.8,03.3,0671.8,31.2
2021-06-26T17:44:00Z,00000200,00000000,-000.79,-000.00,0000.03,0000.48,0000.20,-000.08,0000.40,-000.11,0000.00,20.0,25.9,04.7,03.2,0671.8,31.2
2021-06-26T17:45:00Z,00000200,00000000,0000.19,-000.09,0000.09,-000.35,-000.08,-000.26,-000.10,0000.12,-000.07,20.0,25.9,04.8,03.3,0671.8,31.2
2021-06-26T17:46:00Z,00000200,00000000,0000.13,0000.09,0000.19,0000.73,0000.22,0000.21,0000.13,-000.04,-000.00,20.0,25.9,04.8,03.3,0671.8,31.2
2021-06-26T17:47:00Z,00000200,00000000,-000.18,-000.03,0000.39,0000.38,0000.16,0000.18,0000.20,0000.17,0000.24,20.0,25.9,04.8,03.4,0671.8,31.2
2021-06-26T17:48:00Z,00000200,00000000,0000.02,-000.25,0000.06,0000.44,0000.19,0000.03,-000.33,-000.30,-000.19,20.0,25.9,04.9,03.4,0671.8,31.2
2021-06-26T17:49:00Z,00000200,00000000,0000.16,0000.17,-000.07,0000.00,-000.03,-000.09,0000.18,0000.30,0000.06,20.0,26.0,04.9,03.4,0671.8,31.2
2021-06-26T17:50:00Z,00000200,00000000,0000.23,0000.03,-000.11,-000.59,-000.18,-000.02,0000.17,-000.02,0000.02,20.0,26.0,04.8,03.4,0671.8,31.3
2021-06-26T17:51:00Z,00000200,00000000,0000.32,-000.05,0000.15,0000.52,0000.20,-000.03,0000.10,0000.19,-000.01,20.0,26.0,04.8,03.4,0671.8,31.2
2021-06-26T17:52:00Z,00000200,00000000,0000.68,-000.19,0000.14,0000.18,0000.02,0000.24,-000.14,-000.08,0000.14,20.0,26.0,04.8,03.3,0671.8,31.2
2021-06-26T17:53:00Z,00000200,00000000,-000.34,-000.18,0000.20,0000.31,0000.09,0000.08,0000.13,0000.12,0000.13,20.0,26.0,04.8,03.3,0671.8,31.2
2021-06-26T17:54:00Z,00000200,00000000,-000.63,0000.02,0000.35,0000.26,-000.01,-000.09,0000.24,0000.01,-000.20,20.0,26.0,05.0,03.5,0671.8,31.2
2021-06-26T17:55:00Z,00000200,00000000,0000.24,-000.11,0000.03,0000.29,0000.01,-000.05,-000.11,0000.34,0000.23,20.0,26.0,05.0,03.5,0671.8,31.2
2021-06-26T17:56:00Z,00000200,00000000,-000.26,-000.08,-000.05,0000.24,-000.10,0000.01,-000.01,-000.03,0000.02,20.0,26.0,04.9,03.4,0671.8,31.2
2021-06-26T17:57:00Z,00000200,40000000,,,,,,,-000.10,-000.13,0000.02,20.0,26.0,04.7,03.3,0671.7,31.2
2021-06-26T17:58:00Z,00000200,60000000,,,,,,,0000.24,0000.03,0000.04,19.9,26.1,04.7,03.2,0670.8,31.3
2021-06-26T17:59:00Z,00000200,20000000,,,,,,,0000.24,0000.04,0000.12,19.9,26.2,04.7,03.2,0670.8,31.3
